C/2017 D3 ( ATLAS )

Japanese version
Home page
Updated on April 22, 2017

---------------------------------------------------------------------

* Profile

Discovery Date February 23, 2017
Magnitude 18.0 mag
Discoverer Asteroid Terrestrial-impact Last Alert System (ATLAS) Team

* Pictures

* Orbital Elements

Epoch 2017 May 7.0 TT = JDT 2457880.5
T 2017 Apr. 26.92265 TT                                 MPCW
q   4.9710688            (2000.0)            P               Q
z  -0.0003249      Peri.  340.78052     -0.91593551     -0.39028798
 +/-0.0001671      Node   186.60467     -0.16804842     +0.16147366
e   1.0016153      Incl.  125.64026     -0.36444734     +0.90642239
From 132 observations 2017 Feb. 10-Apr. 15, mean residual 0".7.

* Magnitudes Graph

        m1 = 7.5 + 5 log d + 10.0 log r

---------------------------------------------------------------------

The orbital elements are published on M.P.E.C. 2017-H01.
The magnitudes graphs are made with Comet for Windows.

---------------------------------------------------------------------

Copyright(C) Seiichi Yoshida (comet@aerith.net). All rights reserved.